Time,TemperatureF,DewpointF,PressureIn,WindDirection,WindDirectionDegrees,WindSpeedMPH,WindSpeedGustMPH,Humidity,HourlyPrecipIn,Conditions,Clouds,dailyrainin,SoftwareType,DateUTC
2013-04-08 00:13:00,31.0,-99.9,30.05,SSE,160,4.0,7.0,-999,-99.99,,,-99.99,,2013-04-08 04:13:00,
2013-04-08 00:23:00,31.0,-99.9,30.05,SSE,160,4.0,7.0,-999,-99.99,,,-99.99,,2013-04-08 04:23:00,
2013-04-08 00:35:00,30.0,-99.9,30.04,SE,146,4.0,7.0,-999,-99.99,,,-99.99,,2013-04-08 04:35:00,
2013-04-08 00:45:00,30.0,-99.9,30.04,SE,146,4.0,7.0,-999,-99.99,,,-99.99,,2013-04-08 04:45:00,
2013-04-08 00:53:00,30.0,-99.9,30.04,SE,146,4.0,7.0,-999,-99.99,,,-99.99,,2013-04-08 04:53:00,
2013-04-08 01:03:00,30.0,-99.9,30.04,ESE,118,4.0,7.0,-999,-99.99,,,-99.99,,2013-04-08 05:03:00,
2013-04-08 01:12:00,30.0,-99.9,30.02,ESE,118,4.0,7.0,-999,-99.99,,,-99.99,,2013-04-08 05:12:00,
2013-04-08 01:22:00,30.0,-99.9,30.02,ESE,118,4.0,7.0,-999,-99.99,,,-99.99,,2013-04-08 05:22:00,
2013-04-08 01:32:00,31.0,-99.9,30.03,SE,129,5.0,8.0,-999,-99.99,,,-99.99,,2013-04-08 05:32:00,
2013-04-08 01:42:00,31.0,-99.9,30.03,SE,129,5.0,8.0,-999,-99.99,,,-99.99,,2013-04-08 05:42:00,
2013-04-08 01:53:00,31.0,-99.9,30.73,SE,129,5.0,8.0,-999,-99.99,,,-99.99,,2013-04-08 05:53:00,
2013-04-08 02:02:00,31.0,-99.9,30.73,SE,129,5.0,8.0,-999,-99.99,,,-99.99,,2013-04-08 06:02:00,
2013-04-08 02:12:00,30.0,-99.9,30.04,SE,143,2.0,4.0,-999,-99.99,,,-99.99,,2013-04-08 06:12:00,
2013-04-08 02:22:00,30.0,-99.9,30.04,SE,143,2.0,4.0,-999,-99.99,,,-99.99,,2013-04-08 06:22:00,
2013-04-08 02:32:00,29.0,-99.9,30.73,SE,141,3.0,7.0,-999,-99.99,,,-99.99,,2013-04-08 06:32:00,
2013-04-08 02:43:00,29.0,-99.9,30.03,SE,141,3.0,7.0,-999,-99.99,,,-99.99,,2013-04-08 06:43:00,
2013-04-08 02:53:00,29.0,-99.9,30.03,SE,141,3.0,7.0,-999,-99.99,,,-99.99,,2013-04-08 06:53:00,
2013-04-08 03:02:00,31.0,-99.9,30.71,SE,130,3.0,8.0,-999,-99.99,,,-99.99,,2013-04-08 07:02:00,
2013-04-08 03:12:00,31.0,-99.9,30.01,SE,130,3.0,8.0,-999,-99.99,,,-99.99,,2013-04-08 07:12:00,
2013-04-08 03:22:00,31.0,-99.9,30.01,SE,130,3.0,8.0,-999,-99.99,,,-99.99,,2013-04-08 07:22:00,
2013-04-08 03:33:00,31.0,-99.9,30.01,SE,130,3.0,8.0,-999,-99.99,,,-99.99,,2013-04-08 07:33:00,
2013-04-08 03:42:00,30.0,-99.9,30.72,SSE,160,4.0,10.0,-999,-99.99,,,-99.99,,2013-04-08 07:42:00,
2013-04-08 03:53:00,30.0,-99.9,30.72,SSE,160,4.0,10.0,-999,-99.99,,,-99.99,,2013-04-08 07:53:00,
2013-04-08 04:02:00,30.0,-99.9,30.69,SE,133,3.0,6.0,-999,-99.99,,,-99.99,,2013-04-08 08:02:00,
2013-04-08 04:12:00,30.0,-99.9,30.69,SE,133,3.0,6.0,-999,-99.99,,,-99.99,,2013-04-08 08:12:00,
2013-04-08 04:22:00,30.0,-99.9,30.69,SE,133,3.0,6.0,-999,-99.99,,,-99.99,,2013-04-08 08:22:00,
2013-04-08 04:33:00,30.0,-99.9,30.69,SE,133,3.0,6.0,-999,-99.99,,,-99.99,,2013-04-08 08:33:00,
2013-04-08 04:43:00,30.0,-99.9,29.98,SE,125,3.0,7.0,-999,-99.99,,,-99.99,,2013-04-08 08:43:00,
2013-04-08 04:52:00,30.0,-99.9,30.68,SE,125,3.0,7.0,-999,-99.99,,,-99.99,,2013-04-08 08:52:00,
2013-04-08 05:03:00,31.0,-99.9,30.68,SE,132,4.0,9.0,-999,-99.99,,,-99.99,,2013-04-08 09:03:00,
2013-04-08 05:12:00,31.0,-99.9,29.98,SE,132,4.0,9.0,-999,-99.99,,,-99.99,,2013-04-08 09:12:00,
2013-04-08 05:23:00,31.0,-99.9,30.68,SSE,148,7.0,13.0,-999,-99.99,,,-99.99,,2013-04-08 09:23:00,
2013-04-08 05:34:00,31.0,-99.9,29.98,SSE,148,7.0,13.0,-999,-99.99,,,-99.99,,2013-04-08 09:34:00,
2013-04-08 05:43:00,31.0,-99.9,30.68,SSE,148,7.0,13.0,-999,-99.99,,,-99.99,,2013-04-08 09:43:00,
2013-04-08 05:53:00,31.0,-99.9,29.98,SSE,148,7.0,13.0,-999,-99.99,,,-99.99,,2013-04-08 09:53:00,
2013-04-08 06:03:00,31.0,-99.9,30.68,SE,144,2.0,9.0,-999,-99.99,,,-99.99,,2013-04-08 10:03:00,
2013-04-08 06:13:00,31.0,-99.9,29.98,SE,144,2.0,9.0,-999,-99.99,,,-99.99,,2013-04-08 10:13:00,
2013-04-08 06:23:00,32.0,-99.9,30.68,ESE,111,3.0,10.0,-999,-99.99,,,-99.99,,2013-04-08 10:23:00,
2013-04-08 06:33:00,32.0,-99.9,30.68,ESE,111,3.0,10.0,-999,-99.99,,,-99.99,,2013-04-08 10:33:00,
2013-04-08 06:43:00,32.0,-99.9,29.98,ESE,111,3.0,10.0,-999,-99.99,,,-99.99,,2013-04-08 10:43:00,
2013-04-08 06:53:00,32.0,-99.9,30.68,ESE,111,3.0,10.0,-999,-99.99,,,-99.99,,2013-04-08 10:53:00,
2013-04-08 07:03:00,32.0,-99.9,30.67,East,93,5.0,9.0,-999,-99.99,,,-99.99,,2013-04-08 11:03:00,
2013-04-08 07:12:00,32.0,-99.9,29.97,East,93,5.0,9.0,-999,-99.99,,,-99.99,,2013-04-08 11:12:00,
2013-04-08 07:23:00,32.0,-99.9,30.66,ESE,102,5.0,10.0,-999,-99.99,,,-99.99,,2013-04-08 11:23:00,
2013-04-08 07:33:00,32.0,-99.9,29.96,ESE,102,5.0,10.0,-999,-99.99,,,-99.99,,2013-04-08 11:33:00,
2013-04-08 07:40:00,33.0,-99.9,29.97,ESE,114,4.0,8.0,-999,-99.99,,,-99.99,,2013-04-08 11:40:00,
2013-04-08 07:43:00,32.0,-99.9,30.66,ESE,102,5.0,10.0,-999,-99.99,,,-99.99,,2013-04-08 11:43:00,
2013-04-08 07:53:00,32.0,-99.9,29.96,ESE,102,5.0,10.0,-999,-99.99,,,-99.99,,2013-04-08 11:53:00,
2013-04-08 08:12:00,33.0,-99.9,29.97,ESE,114,4.0,8.0,-999,-99.99,,,-99.99,,2013-04-08 12:12:00,
2013-04-08 08:23:00,33.0,-99.9,29.97,ESE,114,4.0,8.0,-999,-99.99,,,-99.99,,2013-04-08 12:23:00,
2013-04-08 08:33:00,33.0,-99.9,29.97,ESE,114,4.0,8.0,-999,-99.99,,,-99.99,,2013-04-08 12:33:00,
2013-04-08 09:03:00,34.0,-99.9,30.65,ESE,114,7.0,14.0,-999,-99.99,,,-99.99,,2013-04-08 13:03:00,
2013-04-08 09:12:00,34.0,-99.9,29.95,ESE,114,7.0,14.0,-999,-99.99,,,-99.99,,2013-04-08 13:12:00,
2013-04-08 09:22:00,34.0,-99.9,29.95,ESE,114,7.0,14.0,-999,-99.99,,,-99.99,,2013-04-08 13:22:00,
2013-04-08 09:33:00,34.0,-99.9,30.65,ESE,114,7.0,14.0,-999,-99.99,,,-99.99,,2013-04-08 13:33:00,
2013-04-08 09:43:00,34.0,-99.9,29.95,ESE,114,7.0,14.0,-999,-99.99,,,-99.99,,2013-04-08 13:43:00,
2013-04-08 09:53:00,34.0,-99.9,30.65,ESE,114,7.0,14.0,-999,-99.99,,,-99.99,,2013-04-08 13:53:00,
2013-04-08 10:03:00,35.0,-99.9,30.62,SE,127,6.0,13.0,-999,-99.99,,,-99.99,,2013-04-08 14:03:00,
2013-04-08 10:12:00,35.0,-99.9,30.62,SE,127,6.0,13.0,-999,-99.99,,,-99.99,,2013-04-08 14:12:00,
2013-04-08 10:22:00,35.0,-99.9,30.62,SE,127,6.0,16.0,-999,-99.99,,,-99.99,,2013-04-08 14:22:00,
2013-04-08 10:33:00,35.0,-99.9,30.62,SE,127,6.0,16.0,-999,-99.99,,,-99.99,,2013-04-08 14:33:00,
2013-04-08 10:43:00,35.0,-99.9,30.62,SE,127,6.0,16.0,-999,-99.99,,,-99.99,,2013-04-08 14:43:00,
2013-04-08 10:53:00,35.0,-99.9,30.62,SE,127,6.0,16.0,-999,-99.99,,,-99.99,,2013-04-08 14:53:00,
2013-04-08 11:02:00,37.0,-99.9,30.58,East,96,7.0,11.0,-999,-99.99,,,-99.99,,2013-04-08 15:02:00,
2013-04-08 11:12:00,37.0,-99.9,30.58,East,96,7.0,11.0,-999,-99.99,,,-99.99,,2013-04-08 15:12:00,
2013-04-08 11:22:00,37.0,-99.9,30.58,East,96,7.0,12.0,-999,-99.99,,,-99.99,,2013-04-08 15:22:00,
2013-04-08 11:35:00,37.0,-99.9,30.58,East,96,7.0,12.0,-999,-99.99,,,-99.99,,2013-04-08 15:35:00,
2013-04-08 11:43:00,37.0,-99.9,30.58,East,96,7.0,12.0,-999,-99.99,,,-99.99,,2013-04-08 15:43:00,
2013-04-08 11:53:00,37.0,-99.9,30.58,East,96,7.0,12.0,-999,-99.99,,,-99.99,,2013-04-08 15:53:00,
2013-04-08 12:03:00,38.0,-99.9,30.55,East,90,8.0,11.0,-999,-99.99,,,-99.99,,2013-04-08 16:03:00,
2013-04-08 12:13:00,38.0,-99.9,30.55,East,90,8.0,11.0,-999,-99.99,,,-99.99,,2013-04-08 16:13:00,
2013-04-08 12:23:00,38.0,-99.9,30.55,East,90,8.0,11.0,-999,-99.99,,,-99.99,,2013-04-08 16:23:00,
2013-04-08 12:33:00,38.0,-99.9,30.55,East,90,8.0,12.0,-999,-99.99,,,-99.99,,2013-04-08 16:33:00,
2013-04-08 12:42:00,38.0,-99.9,30.55,East,90,8.0,12.0,-999,-99.99,,,-99.99,,2013-04-08 16:42:00,
2013-04-08 12:54:00,38.0,-99.9,30.55,East,90,8.0,12.0,-999,-99.99,,,-99.99,,2013-04-08 16:54:00,
2013-04-08 13:03:00,40.0,-99.9,30.55,ESE,105,7.0,11.0,-999,-99.99,,,-99.99,,2013-04-08 17:03:00,
2013-04-08 13:12:00,40.0,-99.9,30.55,ESE,105,7.0,11.0,-999,-99.99,,,-99.99,,2013-04-08 17:12:00,
2013-04-08 13:23:00,40.0,-99.9,30.55,ESE,105,7.0,14.0,-999,-99.99,,,-99.99,,2013-04-08 17:23:00,
2013-04-08 13:33:00,40.0,-99.9,30.55,ESE,105,7.0,14.0,-999,-99.99,,,-99.99,,2013-04-08 17:33:00,
2013-04-08 13:45:00,40.0,-99.9,30.55,ESE,105,7.0,14.0,-999,-99.99,,,-99.99,,2013-04-08 17:45:00,
2013-04-08 13:53:00,40.0,-99.9,30.55,ESE,105,7.0,14.0,-999,-99.99,,,-99.99,,2013-04-08 17:53:00,
2013-04-08 14:02:00,37.0,-99.9,30.54,ENE,76,7.0,10.0,-999,-99.99,,,-99.99,,2013-04-08 18:02:00,
2013-04-08 14:12:00,37.0,-99.9,30.54,ENE,76,7.0,10.0,-999,-99.99,,,-99.99,,2013-04-08 18:12:00,
2013-04-08 14:23:00,37.0,-99.9,30.54,East,79,8.0,10.0,-999,-99.99,,,-99.99,,2013-04-08 18:23:00,
2013-04-08 14:32:00,37.0,-99.9,30.54,East,79,8.0,10.0,-999,-99.99,,,-99.99,,2013-04-08 18:32:00,
2013-04-08 14:40:00,38.0,-99.9,30.50,ENE,76,13.0,16.0,-999,-99.99,,,-99.99,,2013-04-08 18:40:00,
2013-04-08 14:43:00,37.0,-99.9,30.54,East,79,8.0,10.0,-999,-99.99,,,-99.99,,2013-04-08 18:43:00,
2013-04-08 14:53:00,37.0,-99.9,30.54,East,79,8.0,10.0,-999,-99.99,,,-99.99,,2013-04-08 18:53:00,
2013-04-08 15:03:00,38.0,-99.9,30.50,ENE,76,13.0,16.0,-999,-99.99,,,-99.99,,2013-04-08 19:03:00,
2013-04-08 15:13:00,38.0,-99.9,30.50,ENE,76,13.0,16.0,-999,-99.99,,,-99.99,,2013-04-08 19:13:00,
2013-04-08 15:23:00,38.0,-99.9,30.50,ENE,76,13.0,16.0,-999,-99.99,,,-99.99,,2013-04-08 19:23:00,
2013-04-08 15:34:00,38.0,-99.9,30.50,ENE,76,13.0,16.0,-999,-99.99,,,-99.99,,2013-04-08 19:34:00,
2013-04-08 15:40:00,36.0,-99.9,30.48,ENE,64,17.0,19.0,-999,-99.99,,,-99.99,,2013-04-08 19:40:00,
2013-04-08 16:02:00,36.0,-99.9,30.48,ENE,64,17.0,19.0,-999,-99.99,,,-99.99,,2013-04-08 20:02:00,
2013-04-08 16:12:00,36.0,-99.9,30.48,ENE,64,17.0,19.0,-999,-99.99,,,-99.99,,2013-04-08 20:12:00,
2013-04-08 16:23:00,36.0,-99.9,30.48,ENE,64,17.0,19.0,-999,-99.99,,,-99.99,,2013-04-08 20:23:00,
2013-04-08 16:33:00,36.0,-99.9,30.48,ENE,64,17.0,19.0,-999,-99.99,,,-99.99,,2013-04-08 20:33:00,
2013-04-08 17:02:00,36.0,-99.9,30.50,ENE,66,13.0,19.0,-999,-99.99,,,-99.99,,2013-04-08 21:02:00,
2013-04-08 17:12:00,36.0,-99.9,30.50,ENE,66,13.0,19.0,-999,-99.99,,,-99.99,,2013-04-08 21:12:00,
2013-04-08 17:22:00,36.0,-99.9,30.50,ENE,66,13.0,21.0,-999,-99.99,,,-99.99,,2013-04-08 21:22:00,
2013-04-08 17:33:00,36.0,-99.9,30.50,ENE,66,13.0,21.0,-999,-99.99,,,-99.99,,2013-04-08 21:33:00,
2013-04-08 17:40:00,36.0,-99.9,30.52,NE,56,16.0,18.0,-999,-99.99,,,-99.99,,2013-04-08 21:40:00,
2013-04-08 17:43:00,36.0,-99.9,30.50,ENE,66,13.0,21.0,-999,-99.99,,,-99.99,,2013-04-08 21:43:00,
2013-04-08 17:53:00,36.0,-99.9,30.50,ENE,66,13.0,21.0,-999,-99.99,,,-99.99,,2013-04-08 21:53:00,
2013-04-08 18:03:00,36.0,-99.9,30.52,NE,56,16.0,18.0,-999,-99.99,,,-99.99,,2013-04-08 22:03:00,
2013-04-08 18:13:00,36.0,-99.9,30.52,NE,56,16.0,18.0,-999,-99.99,,,-99.99,,2013-04-08 22:13:00,
2013-04-08 18:23:00,36.0,-99.9,30.52,NE,56,16.0,18.0,-999,-99.99,,,-99.99,,2013-04-08 22:23:00,
2013-04-08 18:32:00,36.0,-99.9,30.52,NE,56,16.0,18.0,-999,-99.99,,,-99.99,,2013-04-08 22:32:00,
2013-04-08 19:13:00,36.0,-99.9,30.55,NE,51,15.0,16.0,-999,-99.99,,,-99.99,,2013-04-08 23:13:00,
2013-04-08 19:22:00,36.0,-99.9,30.55,NE,51,15.0,16.0,-999,-99.99,,,-99.99,,2013-04-08 23:22:00,
2013-04-08 19:32:00,36.0,-99.9,30.55,NE,51,15.0,19.0,-999,-99.99,,,-99.99,,2013-04-08 23:32:00,
2013-04-08 19:43:00,36.0,-99.9,30.55,NE,51,15.0,19.0,-999,-99.99,,,-99.99,,2013-04-08 23:43:00,
2013-04-08 19:52:00,36.0,-99.9,30.55,NE,51,15.0,19.0,-999,-99.99,,,-99.99,,2013-04-08 23:52:00,
2013-04-08 20:02:00,36.0,-99.9,30.59,NE,50,16.0,18.0,-999,-99.99,,,-99.99,,2013-04-09 00:02:00,
2013-04-08 20:13:00,36.0,-99.9,30.59,NE,50,16.0,18.0,-999,-99.99,,,-99.99,,2013-04-09 00:13:00,
2013-04-08 20:22:00,36.0,-99.9,30.59,NE,50,16.0,19.0,-999,-99.99,,,-99.99,,2013-04-09 00:22:00,
2013-04-08 20:32:00,36.0,-99.9,30.59,NE,50,16.0,19.0,-999,-99.99,,,-99.99,,2013-04-09 00:32:00,
2013-04-08 20:42:00,36.0,-99.9,30.59,NE,50,16.0,19.0,-999,-99.99,,,-99.99,,2013-04-09 00:42:00,
2013-04-08 20:52:00,36.0,-99.9,30.59,NE,50,16.0,19.0,-999,-99.99,,,-99.99,,2013-04-09 00:52:00,
2013-04-08 21:03:00,35.0,-99.9,30.62,NE,55,13.0,16.0,-999,-99.99,,,-99.99,,2013-04-09 01:03:00,
2013-04-08 21:12:00,35.0,-99.9,29.92,NE,55,13.0,16.0,-999,-99.99,,,-99.99,,2013-04-09 01:12:00,
2013-04-08 21:22:00,35.0,-99.9,29.92,NE,55,13.0,16.0,-999,-99.99,,,-99.99,,2013-04-09 01:22:00,
2013-04-08 21:34:00,35.0,-99.9,30.62,NE,55,13.0,18.0,-999,-99.99,,,-99.99,,2013-04-09 01:34:00,
2013-04-08 21:42:00,35.0,-99.9,29.92,NE,55,13.0,18.0,-999,-99.99,,,-99.99,,2013-04-09 01:42:00,
2013-04-08 21:53:00,35.0,-99.9,30.62,NE,55,13.0,18.0,-999,-99.99,,,-99.99,,2013-04-09 01:53:00,
2013-04-08 22:02:00,35.0,-99.9,30.65,ENE,65,12.0,16.0,-999,-99.99,,,-99.99,,2013-04-09 02:02:00,
2013-04-08 22:13:00,35.0,-99.9,29.95,ENE,65,12.0,16.0,-999,-99.99,,,-99.99,,2013-04-09 02:13:00,
2013-04-08 22:22:00,35.0,-99.9,29.95,ENE,65,12.0,16.0,-999,-99.99,,,-99.99,,2013-04-09 02:22:00,
2013-04-08 22:33:00,35.0,-99.9,29.95,ENE,65,12.0,16.0,-999,-99.99,,,-99.99,,2013-04-09 02:33:00,
2013-04-08 22:44:00,35.0,-99.9,29.95,ENE,65,12.0,16.0,-999,-99.99,,,-99.99,,2013-04-09 02:44:00,
2013-04-08 22:52:00,35.0,-99.9,30.65,ENE,65,12.0,16.0,-999,-99.99,,,-99.99,,2013-04-09 02:52:00,
2013-04-08 23:02:00,35.0,-99.9,30.69,East,94,3.0,5.0,-999,-99.99,,,-99.99,,2013-04-09 03:02:00,
2013-04-08 23:12:00,35.0,-99.9,29.99,East,94,3.0,5.0,-999,-99.99,,,-99.99,,2013-04-09 03:12:00,
2013-04-08 23:22:00,35.0,-99.9,29.99,East,94,3.0,5.0,-999,-99.99,,,-99.99,,2013-04-09 03:22:00,
2013-04-08 23:33:00,35.0,-99.9,29.99,East,94,3.0,13.0,-999,-99.99,,,-99.99,,2013-04-09 03:33:00,
2013-04-08 23:43:00,35.0,-99.9,29.99,East,94,3.0,13.0,-999,-99.99,,,-99.99,,2013-04-09 03:43:00,
2013-04-08 23:53:00,35.0,-99.9,30.69,East,94,3.0,13.0,-999,-99.99,,,-99.99,,2013-04-09 03:53:00,